This demonstration page uses our WeatherBlox Daily Observations layout. Learn more.

Left ArrowRight Arrow

34.02893, -84.19858

Hourly Observations for July 10, 2021

Temp ( °F °C ) Dew Point ( °F °C ) Humidity (%) Winds ( mph kmh ) Pressure ( in mb ) Visibility ( mi km ) Precip ( " mm )
12:53 am 00:53 Mostly Clear with Mist and Fog 72 22.2 71 21.7 97 97 Calm 30.06 1018 5 8 0.00 0.00
1:53 am 01:53 Mostly Cloudy 72 22.2 70 21.1 94 94 WSW 6 9 30.04 1017 10 16 0.00 0.00
2:53 am 02:53 Clear 71 21.7 69 20.6 94 94 Calm 30.04 1017 10 16 0.00 0.00
3:53 am 03:53 Clear 71 21.7 69 20.6 94 94 W 5 7 30.04 1017 10 16 0.00 0.00
4:53 am 04:53 Clear 71 21.7 70 21.1 96 96 WNW 3 6 30.05 1018 10 16 0.00 0.00
5:53 am 05:53 Clear 70 21.1 69 20.6 97 97 WSW 5 7 30.06 1018 10 16 0.00 0.00
6:53 am 06:53 Sunny 70 21.1 69 20.6 97 97 WSW 3 6 30.06 1018 10 16 0.00 0.00
7:53 am 07:53 Mostly Sunny 72 22.2 70 21.1 94 94 W 6 9 30.06 1018 10 16 0.00 0.00
8:26 am 08:26 Mostly Cloudy 73 22.8 70 21.1 90 90 W 8 13 30.08 1019 10 16 0.00 0.00
8:38 am 08:38 Mostly Cloudy 73 22.8 71 21.7 94 94 W 7 11 30.08 1019 10 16 0.00 0.00
8:53 am 08:53 Mostly Cloudy 73 22.8 70 21.1 90 90 W 6 9 30.09 1019 10 16 0.00 0.00
9:00 am 09:00 Cloudy 73 22.8 70 21.1 90 90 W 7 11 30.10 1019 10 16 0.00 0.00
9:21 am 09:21 Cloudy 74 23.3 71 21.7 91 91 W 6 9 30.10 1019 10 16 0.00 0.00
9:53 am 09:53 Cloudy 75 23.9 71 21.7 88 88 WSW 6 9 30.11 1020 10 16 0.00 0.00
10:29 am 10:29 Mostly Cloudy 78 25.6 72 22.2 82 82 NW 8 13 30.10 1019 10 16 0.00 0.00
10:53 am 10:53 Cloudy 78 25.6 72 22.2 82 82 W 7 11 30.10 1019 10 16 0.00 0.00
11:19 am 11:19 Mostly Cloudy 81 27.2 73 22.8 77 77 W 8 13 30.10 1019 10 16 0.00 0.00
11:27 am 11:27 Mostly Cloudy 81 27.2 72 22.2 74 74 VRB 6 9 30.09 1019 10 16 0.00 0.00
11:53 am 11:53 Mostly Cloudy 82 27.8 73 22.8 74 74 VRB 6 9 30.09 1019 10 16 0.00 0.00
12:06 pm 12:06 Mostly Cloudy 82 27.8 72 22.2 72 72 WSW 10 17 30.08 1019 10 16 0.00 0.00
12:53 pm 12:53 Mostly Cloudy 80 26.7 75 23.9 85 85 Calm 30.06 1018 10 16 0.03 0.76
1:06 pm 13:06 Mostly Cloudy with Nearby Thunderstorms 78 25.6 74 23.3 87 87 VRB 3 6 30.06 1018 3 4 0.03 0.76
1:11 pm 13:11 Mostly Cloudy with Nearby Thunderstorms 78 25.6 74 23.3 87 87 S 3 6 30.06 1018 4 6 0.03 0.76
1:17 pm 13:17 Cloudy with Thunderstorms 78 25.6 74 23.3 87 87 NW 12 19 30.06 1018 2 3 0.10 2.54
1:21 pm 13:21 Cloudy with Strong Thunderstorms 75 23.9 72 22.2 90 90 NNW 24 39 30.08 1019 1 1 0.28 7.11
1:25 pm 13:25 Cloudy with Strong Thunderstorms 71 21.7 68 20 90 90 NNW 20 31 30.09 1019 0 0 0.55 13.97
1:31 pm 13:31 Cloudy with Strong Thunderstorms 71 21.7 67 19.4 87 87 N 12 19 30.08 1019 1 1 0.70 17.78
1:46 pm 13:46 Mostly Cloudy with Thunderstorms 73 22.8 69 20.6 87 87 Calm 30.06 1018 7 11 0.74 18.80
1:49 pm 13:49 Mostly Cloudy with Nearby Thunderstorms 73 23 70 21 89 89 Calm 30.07 1018 7 11 0.74 18.80
1:53 pm 13:53 Mostly Cloudy with Nearby Thunderstorms 73 22.8 69 20.6 87 87 VRB 3 6 30.06 1018 7 11 0.74 18.80
2:19 pm 14:19 Partly Cloudy 73 22.8 71 21.7 94 94 Calm 30.05 1018 10 16 0.00 0.00
2:53 pm 14:53 Sunny 74 23.3 72 22.2 94 94 SSE 3 6 30.04 1017 10 16 0.00 0.00
3:53 pm 15:53 Sunny 79 26.1 74 23.3 85 85 SW 7 11 30.03 1017 10 16 0.00 0.00
4:53 pm 16:53 Sunny 81 27.2 73 22.8 77 77 SSE 3 6 30.02 1017 10 16 0.00 0.00
5:02 pm 17:02 Sunny with Nearby Thunderstorms 80 26.7 72 22.2 76 76 S 3 6 30.03 1017 10 16 0.00 0.00
5:22 pm 17:22 Mostly Cloudy 80 26.7 71 21.7 74 74 SSW 12 19 30.02 1017 10 16 0.00 0.00
5:53 pm 17:53 Mostly Sunny 75 23.9 70 21.1 84 84 SSW 6 9 30.01 1016 10 16 0.00 0.00
6:53 pm 18:53 Mostly Sunny 77 25 69 20.6 77 77 NW 3 6 30.00 1016 10 16 0.00 0.00
7:53 pm 19:53 Partly Cloudy 75 23.9 73 22.8 94 94 SE 3 6 30.01 1016 10 16 0.01 0.25
8:53 pm 20:53 Mostly Clear 75 23.9 73 22.8 94 94 Calm 30.01 1016 10 16 0.00 0.00
9:27 pm 21:27 Mostly Cloudy with Heavy Rain 75 23.9 73 22.8 94 94 SW 7 11 30.03 1017 2 3 0.07 1.78
9:40 pm 21:40 Cloudy with Light Rain 75 23.9 71 21.7 88 88 Calm 30.03 1017 4 6 0.09 2.29
9:53 pm 21:53 Mostly Cloudy with Light Rain 73 22.8 72 22.2 96 96 SE 5 7 30.02 1017 6 10 0.10 2.54
10:53 pm 22:53 Clear 73 22.8 72 22.2 96 96 Calm 30.02 1017 9 14 0.00 0.00
11:53 pm 23:53 Clear 71 21.7 71 21.7 100 100 Calm 30.00 1016 9 14 0.00 0.00

Powered by AerisWeather